Regional Weather Roundup
Issued by NWS

Home | Current Version | Previous Version | Graphics & Text | Print | Product List | Glossary On
Versions: 1 2 3 4 5 6 7 8 9 10 11 12 13 14 15 16 17 18 19 20 21 22 23 24 25 26 27 28 29 30 31 32 33 34 35 36 37 38 39 40 41 42 43 44 45 46 47 48 49 50
000
ASUS43 KIND 221309
RWRIN

WEATHER ROUNDUP FOR INDIANA
NATIONAL WEATHER SERVICE INDIANAPOLIS IN
900 AM EDT FRI MAY 22 2015

NOTE: "FAIR" INDICATES FEW OR NO CLOUDS BELOW 12,000 FEET WITH NO
SIGNIFICANT WEATHER AND/OR OBSTRUCTIONS TO VISIBILITY.

* - STATION DOES NOT REPORT WEATHER SUCH AS PRECIPITATION OR FOG.

+ - STATION NOT QUALITY CONTROLLED BY THE NATIONAL WEATHER SERVICE.
    USE DATA WITH CAUTION...ESPECIALLY DEWPOINT AND RELATIVE
    HUMIDITY OBSERVATIONS.

INZ001>003-010>013-019-020-221400-
NORTHWEST INDIANA

CITY           SKY/WX    TMP DP  RH WIND       PRES   REMARKS
GARY /AIRPORT/ SUNNY     54  46  76 MISG      30.16R
KNOX *+        SUNNY     54  43  66 CALM      30.15R
LA PORTE +     SUNNY     58  48  71 E7        30.16R
MICHIGAN CITY+ SUNNY     55  46  71 NE5       30.15S
MONTICELLO +   SUNNY     55  47  74 W6        30.15R
RENSSELAER +   SUNNY     55  50  82 W5        30.16R
VALPARAISO     SUNNY     58  46  64 E6        30.16R

$$

LMZ046-743>745-221400-
SOUTHERN LAKE MICHIGAN

STATION/POSITION TIME  TEMP    WIND        PRES    WAVE
                       AIR SEA DIR/SP/G            HT
                 (UTC) (F)     (DEG/KT/KT) (MB)    (FT)
BURNS HARBOR     1300   53      70/  6/  7 1021.3R
MICHIGAN CITY    1300   54      50/  6/  8   N/A
5NW MICH CITY    1300   52 51   60/  4/  4   N/A     1

$$

INZ004-005-014>016-021>024-221400-
NORTH CENTRAL INDIANA

CITY           SKY/WX    TMP DP  RH WIND       PRES   REMARKS
ELKHART        SUNNY     55  39  54 E9        30.16R
GOSHEN         SUNNY     57  39  51 E8        30.16R
LOGANSPORT +   SUNNY     54  43  66 W6        30.16S
PERU/GRISSOM   SUNNY     56  46  70 W9        30.14R
ROCHESTER +    SUNNY     59  46  63 W5        30.15R
SOUTH BEND     SUNNY     58  38  47 E8        30.16R
WARSAW +       SUNNY     54  45  71 CALM      30.15R

$$

INZ006>009-017-018-025>027-221400-
NORTHEAST INDIANA

CITY           SKY/WX    TMP DP  RH WIND       PRES   REMARKS
ANGOLA *+      SUNNY     54  37  54 NE6       30.15R
AUBURN +       SUNNY     55  41  58 N7        30.16R
FORT WAYNE     MOSUNNY   57  44  62 W6        30.16R
HUNTINGTON +   SUNNY     55  44  67 W5        30.15R

$$

INZ028-029-035-036-043>045-051>053-221400-
WEST CENTRAL INDIANA

CITY           SKY/WX    TMP DP  RH WIND       PRES   REMARKS
CRAWFORDSVL +  SUNNY     53  40  62 SW8       30.17S
GREENCASTLE +  SUNNY     54  41  62 CALM      30.20R
LAFAYETTE      SUNNY     54  46  74 W6        30.16R
TERRE HAUTE    SUNNY     55  46  71 W9        30.20R

$$

INZ030>032-037>040-046>048-054>057-064-065-221400-
CENTRAL INDIANA

CITY           SKY/WX    TMP DP  RH WIND       PRES   REMARKS
ANDERSON       SUNNY     55  41  58 W6        30.18
CP ATTERBURY + SUNNY     55  45  67 SW7       30.20S
COLUMBUS       SUNNY     55  45  67 SW9       30.21R
FISHERS *+     SUNNY     54  48  82 SW6       30.18R
FRANKFORT +    SUNNY     57  47  67 SW12      30.17S
GREENWOOD *+   SUNNY     57  41  54 W12       30.19R
INDIANAPOLIS   SUNNY     57  44  62 W12       30.17R
-EAGLE CREEK   SUNNY     56  44  64 W6        30.17R
KOKOMO *+      SUNNY     57  46  67 W9        30.16R
MARION +       SUNNY     54  43  67 W7        30.17R
MT COMFORT *+  SUNNY     57  36  44 SW9       30.18R
SHELBYVILLE    SUNNY     58  44  60 SW10      30.18S
ZIONSVILLE +   SUNNY     57  44  61 W8        30.17R

$$

INZ033-034-041-042-049-050-058-059-221400-
EAST CENTRAL INDIANA

CITY           SKY/WX    TMP DP  RH WIND       PRES   REMARKS
MUNCIE         SUNNY     56  45  66 W7        30.17R

$$

INZ060-061-067>069-081>083-085>088-221400-
SOUTHWEST INDIANA

CITY           SKY/WX    TMP DP  RH WIND       PRES   REMARKS
EVANSVILLE     SUNNY     56  46  69 SW9       30.27R
HUNTINGBURG *+ SUNNY     54  45  71 SW6       30.26S
WASHINGTON +   SUNNY     57  43  59 SW13      30.22S

$$

INZ062-063-066-070>080-084-089>092-221400-
SOUTH CENTRAL AND SOUTHEAST INDIANA

CITY           SKY/WX    TMP DP  RH WIND       PRES   REMARKS
BLOOMINGTON    SUNNY     56  44  64 W13       30.20S
MADISON *+     SUNNY     54  43  66 W6        30.25S
NORTH VERNON + SUNNY     54  52  94 SW8       30.23R
SEYMOUR +      SUNNY     57  45  62 SW10      30.23R

$$




USA.gov is the U.S. government's official web portal to all federal, state and local government web resources and services.